Location: Tryon
(41.5533°N, 100.9574°W)
Time: 14:23:07
(UTC-05:00)

OTV 5 (USA 277) - Visible Passes

Search period start: 23 October 2019 00:00
Search period end: 02 November 2019 00:00
Orbit: 310 x 324 km, 54.5° (Epoch: 17 October)

Date Brightness Start Highest point End Pass type
(mag) Time Alt. Az. Time Alt. Az. Time Alt. Az.
26 Oct ? 20:43:48 10° SSW 20:43:54 11° SSW 20:43:54 11° SSW visible
27 Oct ? 20:58:17 10° WSW 20:58:38 13° WSW 20:58:38 13° WSW visible
28 Oct ? 19:38:58 10° SSW 19:41:19 26° SE 19:42:19 21° E visible
29 Oct ? 19:53:03 10° SW 19:55:46 84° SE 19:56:47 34° NE visible
30 Oct ? 20:07:51 10° WSW 20:10:22 33° NW 20:11:08 28° N visible
31 Oct ? 20:23:12 10° WNW 20:25:07 17° NNW 20:25:23 17° NNW visible
01 Nov ? 20:39:30 10° NNW 20:39:34 10° NNW 20:39:34 10° NNW visible
